• In Hungary
  • List of Countries
  • For 7 days
  • Water Temperature
  • Satellite Maps
  • Weather Map
  • News
  • Weather Widgets
  • user-avatar
    Login

    Hourly Weather Oruro

    Today, 14 December, Thursday

    Time Temperature Precipitation Wind Pressure Humidity
    00:00 +10°C° 0 mm 3 mps 477 mmHg 41%
    01:00 +9°C° 0 mm 3 mps 476 mmHg 42%
    02:00 +9°C° 0 mm 2 mps 476 mmHg 44%
    03:00 +8°C° 0 mm 2 mps 476 mmHg 46%
    04:00 +7°C° 0 mm 2 mps 476 mmHg 48%
    05:00 +8°C° 0 mm 1 mps 475 mmHg 51%
    06:00 +8°C° 0 mm 2 mps 476 mmHg 49%
    07:00 +9°C° 0 mm 2 mps 477 mmHg 46%
    08:00 +9°C° 0 mm 3 mps 478 mmHg 44%
    09:00 +11°C° 0 mm 3 mps 479 mmHg 38%
    10:00 +13°C° 0 mm 4 mps 480 mmHg 32%
    11:00 +15°C° 0 mm 5 mps 481 mmHg 26%
    12:00 +16°C° 0 mm 6 mps 481 mmHg 24%
    13:00 +17°C° 0 mm 6 mps 481 mmHg 23%
    14:00 +18°C° 0 mm 7 mps 481 mmHg 21%
    15:00 +17°C° 0 mm 7 mps 481 mmHg 23%
    16:00 +17°C° 0 mm 7 mps 480 mmHg 25%
    17:00 +17°C° 0 mm 8 mps 480 mmHg 27%
    18:00 +15°C° 0 mm 8 mps 479 mmHg 34%
    19:00 +13°C° 0 mm 8 mps 478 mmHg 42%
    20:00 +11°C° 0 mm 8 mps 477 mmHg 49%
    21:00 +10°C° 0 mm 7 mps 478 mmHg 53%
    22:00 +9°C° 0 mm 7 mps 478 mmHg 56%
    23:00 +9°C° 0 mm 6 mps 478 mmHg 59%

    Tomorrow, 15 December, Friday

    Time Temperature Precipitation Wind Pressure Humidity
    00:00 +8°C° 0 mm 6 mps 477 mmHg 61%
    01:00 +8°C° 0 mm 5 mps 477 mmHg 63%
    02:00 +7°C° 0 mm 4 mps 477 mmHg 65%
    03:00 +7°C° 0 mm 4 mps 476 mmHg 67%
    04:00 +7°C° 0 mm 3 mps 476 mmHg 68%
    05:00 +7°C° 0 mm 2 mps 476 mmHg 70%
    06:00 +7°C° 0 mm 2 mps 477 mmHg 65%
    07:00 +8°C° 0 mm 2 mps 477 mmHg 60%
    08:00 +8°C° 0 mm 3 mps 478 mmHg 56%
    09:00 +10°C° 0 mm 3 mps 479 mmHg 47%
    10:00 +12°C° 0 mm 3 mps 479 mmHg 39%
    11:00 +13°C° 0 mm 3 mps 480 mmHg 31%
    12:00 +16°C° 0 mm 3 mps 480 mmHg 28%
    13:00 +17°C° 0 mm 4 mps 480 mmHg 24%
    14:00 +17°C° 0 mm 5 mps 480 mmHg 21%
    15:00 +17°C° 0 mm 5 mps 480 mmHg 21%
    16:00 +17°C° 0 mm 6 mps 480 mmHg 22%
    17:00 +17°C° 0 mm 7 mps 479 mmHg 22%
    18:00 +16°C° 0 mm 7 mps 478 mmHg 28%
    19:00 +13°C° 0 mm 8 mps 478 mmHg 34%
    20:00 +11°C° 0 mm 8 mps 477 mmHg 39%
    21:00 +10°C° 0 mm 7 mps 477 mmHg 42%
    22:00 +9°C° 0 mm 6 mps 477 mmHg 45%
    23:00 +9°C° 0 mm 6 mps 477 mmHg 48%

    Day after tomorrow, 16 December, Saturday

    Time Temperature Precipitation Wind Pressure Humidity
    00:00 +8°C° 0 mm 5 mps 476 mmHg 50%
    01:00 +8°C° 0 mm 4 mps 476 mmHg 52%
    02:00 +8°C° 0 mm 3 mps 475 mmHg 54%
    03:00 +8°C° 0 mm 3 mps 475 mmHg 57%
    04:00 +7°C° 0 mm 2 mps 475 mmHg 59%
    05:00 +7°C° 0 mm 2 mps 475 mmHg 62%
    06:00 +8°C° 0 mm 2 mps 475 mmHg 60%
    07:00 +8°C° 0 mm 2 mps 476 mmHg 57%
    08:00 +9°C° 0 mm 2 mps 477 mmHg 54%
    09:00 +12°C° 0 mm 2 mps 478 mmHg 45%
    10:00 +14°C° 0 mm 2 mps 479 mmHg 36%
    11:00 +16°C° 0 mm 3 mps 480 mmHg 27%
    12:00 +17°C° 0 mm 3 mps 480 mmHg 24%
    13:00 +18°C° 0 mm 3 mps 480 mmHg 20%
    14:00 +19°C° 0 mm 4 mps 480 mmHg 17%
    15:00 +19°C° 0 mm 4 mps 479 mmHg 18%
    16:00 +19°C° 0 mm 5 mps 479 mmHg 18%
    17:00 +19°C° 0 mm 5 mps 478 mmHg 19%
    18:00 +17°C° 0 mm 6 mps 478 mmHg 26%
    19:00 +15°C° 0 mm 6 mps 477 mmHg 33%
    20:00 +12°C° 0 mm 7 mps 476 mmHg 40%
    21:00 +13°C° 0 mm 6 mps 476 mmHg 43%
    22:00 +12°C° 0 mm 5 mps 476 mmHg 45%
    23:00 +11°C° 0 mm 4 mps 476 mmHg 47%

    17 December, Sunday

    Time Temperature Precipitation Wind Pressure Humidity
    00:00 +11°C° 0 mm 4 mps 476 mmHg 49%
    01:00 +10°C° 0 mm 3 mps 475 mmHg 52%
    02:00 +10°C° 0 mm 3 mps 475 mmHg 54%
    03:00 +9°C° 0 mm 2 mps 475 mmHg 57%
    04:00 +9°C° 0 mm 2 mps 475 mmHg 60%
    05:00 +9°C° 0 mm 1 mps 474 mmHg 62%
    06:00 +10°C° 0 mm 1 mps 475 mmHg 57%
    07:00 +11°C° 0 mm 1 mps 476 mmHg 52%
    08:00 +12°C° 0 mm 2 mps 477 mmHg 47%
    09:00 +14°C° 0 mm 2 mps 478 mmHg 38%
    10:00 +16°C° 0 mm 3 mps 479 mmHg 29%
    11:00 +18°C° 0 mm 3 mps 480 mmHg 21%
    12:00 +19°C° 0 mm 4 mps 481 mmHg 18%
    13:00 +20°C° 0 mm 6 mps 481 mmHg 16%
    14:00 +22°C° 0 mm 7 mps 481 mmHg 13%
    15:00 +21°C° 0 mm 8 mps 480 mmHg 17%
    16:00 +19°C° 0 mm 9 mps 480 mmHg 20%
    17:00 +18°C° 0 mm 10 mps 479 mmHg 23%
    18:00 +17°C° 0 mm 10 mps 478 mmHg 31%
    19:00 +14°C° 0 mm 10 mps 478 mmHg 39%
    20:00 +12°C° 0 mm 10 mps 477 mmHg 47%
    21:00 +11°C° 0 mm 9 mps 477 mmHg 51%
    22:00 +10°C° 0 mm 9 mps 477 mmHg 55%
    23:00 +10°C° 0 mm 8 mps 477 mmHg 59%

    18 December, Monday

    Time Temperature Precipitation Wind Pressure Humidity
    00:00 +9°C° 0 mm 8 mps 477 mmHg 61%
    01:00 +9°C° 0 mm 7 mps 476 mmHg 63%
    02:00 +8°C° 0 mm 6 mps 476 mmHg 64%
    03:00 +8°C° 0 mm 5 mps 476 mmHg 66%
    04:00 +7°C° 0 mm 4 mps 476 mmHg 67%
    05:00 +8°C° 0 mm 3 mps 476 mmHg 68%
    06:00 +8°C° 0 mm 3 mps 476 mmHg 65%
    07:00 +9°C° 0 mm 3 mps 477 mmHg 61%
    08:00 +9°C° 0 mm 3 mps 478 mmHg 58%
    09:00 +11°C° 0 mm 3 mps 478 mmHg 52%
    10:00 +12°C° 0 mm 4 mps 479 mmHg 47%
    11:00 +13°C° 0 mm 4 mps 480 mmHg 41%
    12:00 +14°C° 0 mm 4 mps 480 mmHg 39%
    13:00 +15°C° 0 mm 4 mps 480 mmHg 36%
    14:00 +16°C° 0 mm 3 mps 479 mmHg 34%
    15:00 +15°C° 0 mm 4 mps 479 mmHg 35%
    16:00 +15°C° 0 mm 5 mps 479 mmHg 36%
    17:00 +15°C° 0 mm 5 mps 478 mmHg 38%
    18:00 +14°C° 0 mm 5 mps 478 mmHg 42%
    19:00 +13°C° 0 mm 6 mps 477 mmHg 46%
    20:00 +11°C° 0 mm 6 mps 477 mmHg 51%
    21:00 +10°C° 0 mm 6 mps 477 mmHg 53%
    22:00 +9°C° 0 mm 5 mps 477 mmHg 55%
    23:00 +9°C° 0 mm 5 mps 477 mmHg 58%

    19 December, Tuesday

    Time Temperature Precipitation Wind Pressure Humidity
    00:00 +8°C° 0.1 mm 4 mps 477 mmHg 59%
    01:00 +8°C° 0.1 mm 4 mps 476 mmHg 61%
    02:00 +9°C° 0.1 mm 3 mps 476 mmHg 62%
    03:00 +9°C° 0.1 mm 3 mps 476 mmHg 64%
    04:00 +8°C° 0.1 mm 3 mps 476 mmHg 65%
    05:00 +8°C° 0.1 mm 3 mps 476 mmHg 66%
    06:00 +9°C° 0 mm 3 mps 476 mmHg 64%
    07:00 +9°C° 0 mm 3 mps 477 mmHg 62%
    08:00 +10°C° 0 mm 3 mps 478 mmHg 60%
    09:00 +11°C° 0 mm 4 mps 478 mmHg 55%
    10:00 +12°C° 0 mm 4 mps 479 mmHg 50%
    11:00 +14°C° 0 mm 4 mps 479 mmHg 45%
    12:00 +14°C° 0 mm 5 mps 479 mmHg 42%
    13:00 +15°C° 0 mm 6 mps 479 mmHg 40%
    14:00 +16°C° 0 mm 6 mps 479 mmHg 38%
    15:00 +16°C° 0 mm 7 mps 478 mmHg 39%
    16:00 +15°C° 0 mm 7 mps 478 mmHg 40%
    17:00 +15°C° 0 mm 7 mps 478 mmHg 42%
    18:00 +14°C° 0 mm 7 mps 477 mmHg 48%
    19:00 +11°C° 0 mm 7 mps 477 mmHg 54%
    20:00 +10°C° 0 mm 7 mps 476 mmHg 60%
    21:00 +9°C° 0 mm 6 mps 476 mmHg 61%
    22:00 +9°C° 0 mm 5 mps 476 mmHg 63%
    23:00 +8°C° 0 mm 5 mps 476 mmHg 65%
    Show more